Time,TemperatureF,DewpointF,PressureIn,WindDirection,WindDirectionDegrees,WindSpeedMPH,WindSpeedGustMPH,Humidity,HourlyPrecipIn,Conditions,Clouds,dailyrainin,SoftwareType,DateUTC
2013-09-24 20:50:00,54.5,41.0,28.97,ENE,67,0.0,0.0,60,0.00,,,0.00,WUHU216WMR100,2013-09-25 00:50:00,
2013-09-24 20:51:00,54.5,41.0,28.97,ENE,67,0.0,0.0,60,0.00,,,0.00,WUHU216WMR100,2013-09-25 00:51:00,
2013-09-24 20:52:00,54.5,40.6,28.97,ENE,67,0.0,0.0,59,0.00,,,0.00,WUHU216WMR100,2013-09-25 00:52:00,
2013-09-24 20:57:00,54.1,40.6,28.97,ENE,67,0.9,0.9,60,0.00,,,0.00,WUHU216WMR100,2013-09-25 00:57:00,
2013-09-24 21:02:00,54.0,41.0,28.97,ENE,67,1.1,1.3,61,0.00,,,0.00,WUHU216WMR100,2013-09-25 01:02:00,
2013-09-24 21:07:00,53.6,41.0,28.97,ENE,67,0.0,1.3,62,0.00,,,0.00,WUHU216WMR100,2013-09-25 01:07:00,
2013-09-24 21:12:00,53.4,41.6,28.97,ENE,67,0.0,1.3,64,0.00,,,0.00,WUHU216WMR100,2013-09-25 01:12:00,
2013-09-24 21:21:00,52.9,41.6,28.97,ENE,67,0.0,0.0,65,0.00,,,0.00,WUHU216WMR100,2013-09-25 01:21:00,
2013-09-24 21:26:00,52.9,41.6,28.97,ENE,67,0.0,0.0,65,0.00,,,0.00,WUHU216WMR100,2013-09-25 01:26:00,
2013-09-24 21:31:00,52.9,41.6,28.97,ENE,67,0.0,0.0,65,0.00,,,0.00,WUHU216WMR100,2013-09-25 01:31:00,
2013-09-24 21:36:00,52.9,41.6,28.97,ENE,67,0.0,0.0,65,0.00,,,0.00,WUHU216WMR100,2013-09-25 01:36:00,
2013-09-24 21:41:00,52.9,41.6,28.97,ENE,67,0.0,0.0,65,0.00,,,0.00,WUHU216WMR100,2013-09-25 01:41:00,
2013-09-24 21:46:00,52.9,41.6,28.97,ENE,67,0.0,0.0,65,0.00,,,0.00,WUHU216WMR100,2013-09-25 01:46:00,
2013-09-24 21:51:00,51.4,41.7,28.97,ENE,67,0.0,0.0,69,0.00,,,0.00,WUHU216WMR100,2013-09-25 01:51:00,
2013-09-24 21:56:00,51.4,41.7,28.97,ENE,67,0.0,0.0,69,0.00,,,0.00,WUHU216WMR100,2013-09-25 01:56:00,
2013-09-24 22:00:00,50.9,41.2,28.97,ENE,67,0.0,0.0,69,0.00,,,0.00,WUHU216WMR100,2013-09-25 02:00:00,
2013-09-24 22:05:00,50.9,41.2,28.97,ENE,67,0.0,0.0,69,0.00,,,0.00,WUHU216WMR100,2013-09-25 02:05:00,
2013-09-24 22:10:00,50.9,41.2,28.97,ENE,67,0.0,0.0,69,0.00,,,0.00,WUHU216WMR100,2013-09-25 02:10:00,
2013-09-24 22:15:00,50.9,41.2,28.97,ENE,67,0.0,0.0,69,0.00,,,0.00,WUHU216WMR100,2013-09-25 02:15:00,
2013-09-24 22:20:00,50.9,41.2,28.97,ENE,67,0.0,0.0,69,0.00,,,0.00,WUHU216WMR100,2013-09-25 02:20:00,
2013-09-24 22:25:00,50.9,41.2,28.97,ENE,67,0.0,0.0,69,0.00,,,0.00,WUHU216WMR100,2013-09-25 02:25:00,
2013-09-24 22:30:00,50.9,41.2,28.97,ENE,67,0.0,0.0,69,0.00,,,0.00,WUHU216WMR100,2013-09-25 02:30:00,
2013-09-24 22:35:00,50.9,41.2,28.97,ENE,67,0.0,0.0,69,0.00,,,0.00,WUHU216WMR100,2013-09-25 02:35:00,
2013-09-24 22:40:00,49.3,41.4,28.97,ENE,67,0.0,0.0,74,0.00,,,0.00,WUHU216WMR100,2013-09-25 02:40:00,
2013-09-24 22:45:00,49.3,41.4,28.97,ENE,67,0.0,0.0,74,0.00,,,0.00,WUHU216WMR100,2013-09-25 02:45:00,
2013-09-24 22:50:00,49.1,41.2,28.97,ENE,67,0.0,0.0,74,0.00,,,0.00,WUHU216WMR100,2013-09-25 02:50:00,
2013-09-24 22:55:00,48.9,41.1,28.97,ENE,67,0.0,0.0,74,0.00,,,0.00,WUHU216WMR100,2013-09-25 02:55:00,
2013-09-24 23:00:00,48.9,41.4,28.97,ENE,67,0.0,0.0,75,0.00,,,0.00,WUHU216WMR100,2013-09-25 03:00:00,
2013-09-24 23:05:00,48.6,40.8,28.97,ENE,67,0.0,0.0,74,0.00,,,0.00,WUHU216WMR100,2013-09-25 03:05:00,
2013-09-24 23:10:00,48.6,41.4,28.97,ENE,67,0.0,0.0,76,0.00,,,0.00,WUHU216WMR100,2013-09-25 03:10:00,
2013-09-24 23:15:00,48.4,41.2,28.97,ENE,67,0.0,0.0,76,0.00,,,0.00,WUHU216WMR100,2013-09-25 03:15:00,
2013-09-24 23:20:00,48.2,40.7,28.97,ENE,67,0.0,0.0,75,0.00,,,0.00,WUHU216WMR100,2013-09-25 03:20:00,
2013-09-24 23:25:00,48.0,40.9,28.97,ENE,67,0.0,0.0,76,0.00,,,0.00,WUHU216WMR100,2013-09-25 03:25:00,
2013-09-24 23:30:00,48.0,40.9,28.97,ENE,67,0.0,1.6,76,0.00,,,0.00,WUHU216WMR100,2013-09-25 03:30:00,
2013-09-24 23:35:00,48.0,40.9,28.97,ENE,67,0.0,1.6,76,0.00,,,0.00,WUHU216WMR100,2013-09-25 03:35:00,
2013-09-24 23:41:00,47.8,41.0,28.97,ENE,67,0.0,0.0,77,0.00,,,0.00,WUHU216WMR100,2013-09-25 03:41:00,
2013-09-24 23:46:00,47.5,40.7,28.97,ENE,67,0.0,0.0,77,0.00,,,0.00,WUHU216WMR100,2013-09-25 03:46:00,
2013-09-24 23:51:00,47.3,40.5,28.97,ENE,67,0.0,0.0,77,0.00,,,0.00,WUHU216WMR100,2013-09-25 03:51:00,
2013-09-24 23:56:00,47.3,40.5,28.97,ENE,67,0.0,0.0,77,0.00,,,0.00,WUHU216WMR100,2013-09-25 03:56:00,